Theta_e
309 311 314 316 319 319 320 318 318 321 321 320 320 319 315 319 323 317 320 322 330 350 350 349 351 351 352 354 358 357 354 356 356 356 356 353 349 346 346 345 344 342 342 345 346 346 345 343 342 340 336 334 333 333 333 333 331 327 326 327 328 327 327 326 327 328 330 331 332 332 334 335 337 339 340 340 340 340 340 339 339 339 339 336 334 333 334 335 335 335 335 336 336 336 336 336 336
310 310 311 316 319 319 322 320 321 323 319 316 316 320 318 319 321 319 319 321 341 352 350 352 353 352 352 353 355 354 351 353 353 353 352 349 348 347 346 345 343 341 341 344 346 345 344 344 343 342 338 334 333 333 334 335 334 331 327 327 328 329 328 328 327 327 328 328 328 328 329 332 335 338 339 339 339 340 339 339 340 340 340 339 338 335 334 334 334 334 334 335 335 335 335 334 333
309 308 311 318 317 316 321 320 323 321 316 313 312 319 319 319 319 319 319 324 346 350 350 352 352 352 351 357 355 355 352 348 349 350 351 349 348 347 346 345 342 341 340 343 346 345 344 344 344 343 339 334 333 334 335 336 336 334 332 329 329 330 329 328 328 328 327 327 327 326 327 329 334 336 337 338 338 339 339 340 341 341 341 340 340 336 334 334 333 333 334 335 336 335 333 333 332
307 308 312 318 317 317 323 323 328 324 318 315 313 319 322 321 317 319 329 336 348 348 350 354 355 349 354 366 356 355 355 350 351 351 351 349 348 348 346 344 342 340 341 343 345 344 344 345 345 343 340 334 333 334 334 336 336 336 335 333 333 333 331 329 328 328 328 328 327 327 327 329 333 336 336 336 338 338 338 340 341 341 341 340 340 339 335 333 333 333 334 336 336 334 333 333 332
307 310 312 316 319 319 322 321 326 324 317 317 316 320 324 322 316 321 336 342 344 346 350 354 358 351 353 358 352 356 356 352 352 351 352 350 348 347 345 344 341 340 342 344 344 345 344 345 345 344 342 335 333 334 334 336 336 336 335 335 334 334 333 332 331 330 330 330 329 329 330 331 333 335 334 335 337 338 338 339 340 340 340 340 339 339 336 333 332 332 332 335 336 335 334 334 333
310 312 312 313 315 315 319 318 321 321 317 318 317 320 322 318 317 319 329 342 346 348 351 353 355 354 355 351 349 355 352 352 352 351 352 349 349 347 345 343 342 341 344 345 345 346 345 345 345 344 342 336 333 333 334 336 336 336 336 335 334 334 333 333 333 332 332 331 330 330 329 329 329 330 331 333 335 337 337 338 339 339 338 338 338 338 336 332 331 331 331 333 336 336 334 334 334
311 313 315 316 315 316 322 323 322 321 318 317 318 320 319 316 317 315 320 341 349 350 353 352 352 356 356 352 353 352 349 351 351 352 351 349 349 346 345 344 343 343 345 346 346 346 345 346 345 345 343 337 333 333 334 336 337 336 336 335 335 334 333 333 333 332 331 330 327 326 325 324 325 325 327 331 334 336 336 337 338 337 336 336 337 337 335 332 329 330 330 332 334 334 333 333 334
311 314 316 320 319 317 320 322 321 319 319 317 317 318 319 318 315 313 316 334 348 350 353 351 350 357 355 352 357 352 349 352 350 352 351 349 348 346 345 344 344 344 346 346 345 345 345 346 346 345 343 339 334 332 333 336 338 336 336 336 335 335 333 333 333 332 330 326 324 323 324 323 325 325 326 330 333 334 335 335 336 335 335 336 336 337 335 332 329 328 329 330 332 332 332 332 331
311 313 313 318 319 317 319 319 316 316 318 318 317 317 320 317 314 316 314 332 353 354 354 353 351 357 356 353 356 352 349 351 351 351 349 348 347 346 344 343 343 344 346 346 346 347 346 346 346 345 343 340 335 333 334 336 337 336 336 335 334 335 333 332 332 331 327 324 324 325 325 326 327 326 326 328 332 333 334 335 334 334 335 336 336 336 334 332 328 326 327 328 330 330 330 330 329
312 312 313 318 318 317 318 317 317 317 318 318 316 314 317 314 314 314 313 335 356 355 354 354 352 356 356 354 354 351 349 350 349 349 348 347 346 345 344 342 343 344 346 346 346 345 346 347 347 345 344 341 337 334 334 336 337 336 336 335 334 334 333 331 331 330 326 324 325 327 328 328 327 326 326 327 330 332 332 333 333 334 335 335 335 334 334 331 326 324 326 326 329 330 329 328 327
316 313 313 318 317 316 316 317 321 321 318 315 315 315 316 313 314 317 324 346 356 357 356 357 356 354 353 353 353 351 349 349 348 348 346 346 345 345 343 342 343 344 345 345 345 344 344 345 346 346 343 342 340 336 335 336 337 337 336 335 334 334 333 331 331 330 326 325 327 329 329 328 328 326 326 326 328 330 331 332 332 334 333 334 334 333 332 329 324 323 325 325 328 330 329 326 326
316 314 316 319 318 318 317 317 320 323 320 316 317 317 316 312 319 335 348 355 356 359 355 356 357 351 354 355 353 350 349 348 347 346 346 345 344 343 343 343 343 342 343 343 343 343 342 342 344 344 343 342 342 340 337 336 337 338 336 334 334 334 333 331 331 330 325 326 329 330 329 329 328 327 326 326 327 328 329 331 331 333 332 332 332 331 329 324 321 322 324 325 326 327 327 326 326
319 318 319 318 317 317 316 316 317 321 323 319 317 314 315 312 321 343 353 354 355 357 349 350 353 351 354 353 351 350 349 348 346 346 344 343 343 343 343 343 343 341 341 339 339 342 342 343 343 343 343 342 342 341 337 335 338 340 337 334 334 333 332 331 331 328 325 328 330 330 330 330 329 328 327 327 327 327 328 329 329 330 330 330 329 329 327 321 318 320 324 326 326 327 327 327 326
319 318 320 316 313 316 315 315 315 316 319 319 317 312 315 313 320 340 352 356 351 349 347 346 349 353 356 352 353 352 349 348 346 345 343 342 342 342 343 343 343 340 339 335 338 342 340 341 341 341 342 342 341 341 338 337 339 339 337 334 334 334 332 331 331 326 325 329 330 330 330 330 330 328 327 327 326 326 327 327 328 329 329 328 328 328 325 320 319 321 325 327 326 327 327 328 327
315 319 323 317 313 314 312 314 313 313 316 318 316 313 315 317 325 336 345 353 349 343 346 346 344 351 356 353 355 350 347 348 346 345 342 341 341 342 344 343 341 339 336 333 338 342 341 340 340 339 341 342 341 341 340 340 339 337 336 336 334 334 332 331 330 325 325 329 330 330 330 331 330 329 328 327 326 326 326 327 327 327 328 328 327 327 326 322 321 322 326 327 327 326 327 328 327
314 319 321 315 313 313 311 313 312 314 318 318 315 314 315 320 329 335 335 344 348 343 346 348 343 346 352 352 352 347 346 347 345 345 342 341 340 342 344 341 340 338 334 333 337 340 340 341 341 340 342 342 341 341 341 340 338 335 336 336 334 334 331 332 330 325 327 330 331 331 332 331 332 332 330 328 327 326 326 326 326 325 326 327 327 328 327 325 323 323 325 327 327 326 327 328 327
313 318 318 315 315 314 313 314 313 314 317 318 315 314 314 318 331 337 337 342 348 349 348 347 343 346 351 349 347 346 345 346 345 345 342 340 339 340 342 341 339 337 335 333 333 335 336 339 340 342 342 341 341 342 341 339 337 336 337 336 335 333 332 333 331 327 329 331 333 333 333 333 333 333 332 330 329 327 326 326 326 325 324 325 327 328 329 327 325 325 325 327 327 325 327 327 327
312 318 317 315 316 316 317 318 317 313 314 316 314 314 312 316 330 337 341 345 346 350 351 348 347 346 347 346 345 345 345 345 345 344 342 340 339 338 340 340 339 338 337 333 332 334 336 336 339 342 341 341 342 340 339 337 337 338 337 337 335 334 334 334 333 329 329 332 334 333 333 334 335 334 334 332 331 329 328 328 327 326 325 325 326 326 328 328 326 325 326 327 326 325 327 327 327
316 319 315 317 317 315 317 319 317 314 313 316 315 314 312 314 325 333 346 348 344 352 353 350 354 349 346 345 343 344 344 344 344 344 343 340 338 337 337 338 338 339 338 335 336 337 336 335 338 339 339 341 340 337 338 337 335 336 336 335 335 334 334 334 333 330 329 332 333 333 334 335 336 335 335 334 333 331 330 330 329 327 326 325 325 326 327 328 327 326 326 327 326 326 326 326 327
315 315 314 320 318 315 317 316 316 316 312 314 315 313 313 312 317 335 351 348 344 354 356 356 359 352 347 346 342 343 344 344 344 343 343 341 339 337 336 337 338 339 338 337 337 335 332 332 335 337 338 339 337 335 339 338 333 335 335 334 335 334 334 333 332 331 330 332 333 333 334 335 337 336 336 336 335 333 331 331 331 331 329 327 326 326 327 327 327 326 327 327 327 327 327 326 327
311 312 316 318 312 314 317 315 316 315 312 313 313 312 314 311 323 346 352 344 347 351 352 358 359 351 347 346 343 343 344 344 344 343 342 341 340 337 336 336 336 337 335 334 333 331 329 329 332 337 337 335 333 334 337 336 334 336 337 336 337 334 332 332 331 331 331 331 332 332 332 334 336 337 336 336 336 335 334 332 331 332 331 330 328 326 326 327 328 327 327 328 327 328 327 326 327
311 312 315 315 310 312 314 316 317 315 313 312 313 312 312 315 332 350 349 348 353 347 342 347 349 346 346 346 344 344 344 345 344 342 342 340 340 338 336 335 334 335 331 332 335 331 328 329 332 336 334 331 331 333 336 337 337 336 337 338 337 335 332 331 331 331 332 331 332 331 331 332 333 334 334 335 335 335 335 334 332 332 332 331 329 328 326 326 327 327 328 327 327 328 327 326 327
313 315 315 314 312 312 312 314 315 314 313 312 313 312 311 316 322 332 343 348 343 338 339 343 345 342 344 346 344 345 345 345 344 342 341 339 337 334 334 333 333 334 329 331 337 334 329 328 329 331 331 331 331 335 337 336 336 334 334 335 335 334 332 332 332 332 332 332 333 332 332 331 331 331 331 332 334 335 335 335 334 333 333 331 329 328 327 327 326 327 328 328 327 326 326 326 327
311 314 315 313 311 312 312 312 311 312 311 312 313 310 312 314 311 322 336 344 343 340 343 345 344 340 344 346 345 346 344 344 342 341 339 334 332 331 333 333 333 335 332 332 336 333 329 327 327 329 331 333 333 336 337 334 333 332 331 332 333 333 332 332 332 332 332 332 334 334 332 331 332 331 330 331 332 334 335 336 334 334 333 330 328 327 327 326 326 326 327 327 326 325 324 326 327
309 312 314 312 312 314 313 310 311 312 311 311 310 311 313 310 315 327 332 343 349 344 342 343 342 341 344 345 345 344 343 342 339 338 336 332 331 332 333 333 333 335 334 334 334 333 330 327 326 329 331 333 334 336 337 335 332 331 332 332 333 332 331 332 332 331 331 331 332 333 332 332 334 332 331 331 332 334 336 335 334 335 334 330 327 326 326 327 327 326 326 326 325 324 325 327 328
311 311 312 311 311 313 312 310 312 312 311 311 309 312 314 312 319 328 333 342 345 340 341 341 339 342 342 342 343 343 342 340 336 335 334 332 332 332 333 334 334 334 333 333 334 333 333 330 329 333 333 332 334 336 336 334 332 332 333 333 333 332 332 332 332 332 332 331 331 331 331 332 334 334 333 333 334 336 335 334 334 334 334 329 326 326 326 329 330 328 326 326 325 325 328 330 329
312 311 311 311 311 311 310 311 314 311 310 312 311 313 313 316 320 321 333 340 341 340 342 339 339 341 339 339 339 338 339 337 333 332 332 332 332 333 333 334 334 334 334 335 334 332 335 335 334 336 337 336 336 337 334 332 333 333 333 334 334 334 333 334 332 332 332 333 334 333 332 332 333 335 335 334 335 335 333 333 334 334 334 332 328 327 327 329 331 330 328 328 327 328 331 330 329
311 312 311 314 312 310 311 311 313 311 311 313 311 312 311 315 320 320 334 340 339 341 341 338 339 338 336 337 335 336 335 332 330 330 331 332 333 333 333 335 335 335 335 335 335 334 335 336 335 335 336 337 337 338 336 334 334 335 336 336 336 336 335 334 333 333 333 335 336 336 335 334 334 335 336 336 336 336 334 333 333 333 334 334 331 328 328 330 331 331 330 330 330 330 332 330 329
311 312 312 316 314 312 312 311 312 310 311 313 311 311 311 315 318 322 336 340 338 340 340 339 338 335 335 335 334 335 332 329 328 329 332 333 334 335 335 336 336 335 335 335 336 335 336 337 335 335 334 334 337 340 340 338 338 338 339 338 337 337 336 334 334 334 335 336 338 338 337 336 335 335 335 336 337 336 334 332 333 332 331 332 332 330 329 331 331 331 331 331 331 331 332 331 329
311 311 310 315 314 314 312 310 311 309 311 313 310 312 315 319 314 317 332 340 339 341 340 337 337 335 334 333 334 334 331 329 329 328 332 334 335 336 336 337 336 336 336 336 336 334 335 336 333 335 334 334 338 340 341 341 341 339 339 339 338 335 334 334 334 334 334 334 335 335 336 336 337 336 335 337 336 335 334 332 332 333 332 332 332 331 332 332 332 332 332 331 331 332 332 331 329
312 309 313 315 310 316 317 312 312 310 312 312 309 312 316 321 313 313 330 339 341 342 339 336 336 334 333 334 334 333 331 329 329 329 333 334 334 335 336 336 336 335 334 336 336 335 336 333 328 330 331 336 339 339 342 341 339 338 337 337 336 333 332 332 332 332 332 332 332 332 333 335 335 336 336 337 335 333 333 333 333 334 335 333 330 332 334 333 333 333 332 331 331 332 331 329 328
316 310 319 320 310 316 319 313 313 311 311 311 309 313 315 318 312 318 333 339 340 341 337 335 336 335 334 334 333 333 331 327 327 329 333 335 334 335 335 335 337 335 335 335 335 335 333 328 324 325 330 337 339 339 340 339 337 336 335 334 333 332 331 331 331 331 332 332 332 333 333 334 334 335 336 336 335 333 332 333 334 335 335 333 331 333 334 333 333 334 332 331 330 331 330 328 327
325 315 319 321 312 315 318 313 313 312 311 311 310 314 317 315 311 323 336 338 340 339 337 335 334 335 334 333 333 332 332 330 329 329 332 335 334 335 334 334 336 337 336 334 335 335 330 327 326 328 334 337 338 338 338 337 336 334 332 332 331 331 331 331 332 333 334 333 332 333 334 335 334 334 335 335 333 333 333 332 333 334 334 333 332 333 334 333 332 332 331 331 330 330 330 328 327
327 322 321 321 316 314 316 317 315 311 310 312 311 312 315 311 311 328 340 336 339 339 335 335 334 334 333 333 333 332 333 334 331 328 330 334 334 335 334 334 336 337 333 330 334 333 332 332 330 331 336 336 336 337 338 336 334 332 331 331 332 332 332 333 333 333 333 332 332 332 334 335 334 333 333 333 333 333 333 332 332 332 332 330 331 332 332 330 331 331 331 331 331 330 329 328 327
321 320 320 319 317 315 316 318 316 312 311 311 311 311 314 313 311 326 339 336 338 338 333 333 332 332 333 332 332 331 333 334 330 327 330 332 334 336 334 334 336 336 334 332 334 334 335 338 336 335 337 336 336 337 337 335 332 332 332 332 333 333 332 332 331 331 331 330 330 330 333 334 332 331 333 333 333 333 333 332 331 330 329 329 330 329 328 329 330 331 330 330 329 328 329 328 326
318 316 316 317 317 317 316 316 315 312 312 312 313 312 312 313 310 321 336 338 337 337 333 333 332 332 333 332 332 330 332 332 328 327 330 331 333 335 334 335 336 335 335 335 335 335 335 338 338 337 337 336 336 337 336 333 333 333 334 333 332 332 331 330 329 329 330 329 329 330 332 333 332 331 332 332 331 332 332 333 332 330 329 329 329 328 328 329 330 331 329 329 328 326 326 325 325
314 314 316 316 316 316 316 316 316 312 312 314 313 312 311 314 315 321 333 338 337 338 335 334 333 332 332 332 332 330 330 329 326 327 330 330 332 334 334 334 335 334 333 334 334 334 336 338 337 334 335 335 335 335 333 333 334 334 333 331 330 330 329 327 326 328 329 329 330 330 330 331 330 329 329 329 329 330 331 331 331 330 330 330 329 329 329 329 329 329 328 328 327 326 324 324 326
314 315 316 316 316 318 316 314 317 315 313 314 314 311 311 316 317 320 332 338 336 338 336 335 334 332 331 332 333 331 328 329 330 330 328 329 331 332 332 332 333 333 332 333 334 335 336 336 335 333 333 333 331 331 332 333 334 333 331 330 328 329 328 324 324 326 329 330 330 330 330 330 330 329 329 328 328 329 330 329 329 330 330 330 329 329 329 328 328 328 327 326 326 325 324 325 326
318 316 315 317 316 316 315 315 319 317 312 315 315 311 314 321 320 318 329 336 333 334 333 333 333 332 332 331 332 331 328 331 334 333 329 327 329 331 331 331 332 334 333 334 335 336 336 334 333 331 331 330 329 329 329 330 331 330 329 329 328 328 326 323 323 326 328 328 329 328 327 328 328 329 329 329 329 329 329 328 328 329 329 330 329 329 330 329 329 329 327 327 326 325 325 326 327
322 319 316 317 316 313 315 318 321 320 316 316 317 318 321 326 323 317 321 327 330 332 333 333 332 331 331 330 331 330 328 330 334 336 331 327 327 330 331 330 331 333 332 333 334 335 334 332 331 330 329 328 327 326 326 327 329 330 329 329 327 326 325 324 324 325 326 326 326 325 325 325 325 326 327 328 328 327 326 326 327 328 329 330 329 329 330 329 329 328 328 327 327 325 326 326 327
325 323 318 318 317 314 315 318 325 329 322 318 324 326 324 327 324 318 319 322 326 332 335 336 333 331 330 329 330 330 330 330 331 334 333 328 327 328 329 330 331 332 332 333 334 335 333 331 331 329 327 326 325 325 325 326 329 329 328 327 325 324 323 323 323 322 322 323 322 323 322 322 322 322 323 324 325 326 326 326 326 327 328 328 328 328 328 328 327 327 327 328 327 326 327 326 326
323 325 322 319 318 317 317 320 329 334 322 315 320 321 323 332 329 321 324 325 325 331 336 337 334 332 332 331 331 331 332 331 330 331 331 328 326 327 328 330 331 332 332 333 335 336 333 330 330 327 325 324 324 324 324 325 328 327 327 325 324 323 322 322 321 320 320 320 320 320 320 320 319 319 319 321 323 324 323 324 325 326 327 327 327 327 327 327 327 326 326 327 327 327 327 326 325
319 325 323 318 318 318 320 321 322 325 320 317 321 323 326 331 328 321 323 327 327 328 332 335 335 334 333 332 331 332 332 332 332 330 330 328 326 326 327 328 332 332 332 333 334 334 332 330 329 326 325 324 323 324 323 324 326 326 326 325 323 322 322 321 320 320 320 320 320 320 319 319 319 318 319 320 322 324 323 322 323 325 326 326 326 326 325 326 326 326 326 326 326 326 326 326 325
321 323 319 318 318 317 325 326 320 321 319 320 329 333 327 322 325 324 320 322 325 327 331 334 334 334 333 332 331 332 332 330 330 331 333 330 325 326 326 328 331 332 331 332 332 332 330 328 327 326 325 323 322 323 323 323 324 325 325 323 323 322 321 320 320 320 320 320 319 319 318 319 319 319 319 319 322 324 323 320 320 324 325 324 324 325 325 325 326 325 326 325 326 326 327 327 325
323 322 317 318 319 321 330 330 325 326 319 320 333 329 319 326 337 330 320 319 320 324 330 333 335 334 332 332 332 331 331 329 329 331 334 328 324 326 327 327 329 332 332 331 330 328 326 324 324 324 325 324 323 323 322 322 324 325 325 323 322 320 319 319 319 319 319 319 318 318 318 318 319 319 319 319 320 321 320 318 319 322 323 323 323 324 325 325 325 325 326 326 327 327 327 327 326
318 316 315 318 321 327 334 331 327 330 322 321 329 322 313 329 342 329 317 317 318 324 328 327 330 333 331 331 331 330 330 328 329 333 331 324 323 326 326 327 328 329 331 330 327 325 323 324 324 325 325 324 323 324 323 323 324 325 324 322 320 318 317 318 319 319 318 318 318 317 317 317 317 318 318 318 319 319 318 318 319 321 321 321 322 323 323 323 323 324 325 326 327 327 327 327 327
312 317 319 317 324 331 336 336 330 325 324 325 327 323 315 321 335 330 319 317 318 324 327 323 323 328 330 330 329 329 329 328 329 331 327 320 320 323 324 325 326 327 329 328 326 325 325 325 325 325 325 323 322 321 322 323 324 325 324 321 319 317 316 316 317 318 318 318 316 316 317 316 317 317 317 318 318 317 317 318 319 320 321 321 321 321 320 321 323 323 323 324 325 325 326 326 326
313 322 322 316 322 327 327 333 328 320 325 328 325 323 316 317 327 324 321 323 320 321 323 323 322 324 329 329 327 327 327 327 327 328 327 322 321 321 319 322 324 325 327 326 328 327 326 325 325 325 323 322 321 320 320 321 322 323 321 320 319 316 313 313 315 317 318 317 315 316 316 316 317 317 318 317 317 317 317 318 319 319 320 320 320 320 320 321 322 320 319 319 320 323 323 324 323
317 320 322 318 320 322 321 325 324 323 325 321 322 321 317 325 327 316 318 323 318 316 316 317 316 316 323 328 326 326 326 327 327 326 327 327 324 320 318 320 321 323 324 325 328 327 326 326 325 323 321 321 322 321 321 322 321 321 320 319 319 316 313 312 313 315 317 318 316 315 315 315 317 317 317 316 316 316 316 318 319 319 319 318 318 318 318 319 319 317 316 315 315 317 318 318 318
315 317 320 320 319 319 320 320 319 321 322 319 319 318 317 326 322 314 319 319 314 316 317 318 317 314 321 328 327 327 326 326 326 326 328 327 322 319 320 321 321 322 323 324 327 326 325 326 323 323 324 323 323 322 322 321 320 320 320 319 318 316 314 313 312 313 316 318 317 316 315 315 315 315 314 313 312 312 311 314 317 316 316 315 315 315 315 316 316 315 313 310 310 311 312 311 311
313 315 316 318 322 322 320 321 321 320 321 321 317 314 321 325 316 313 319 317 317 321 321 322 322 319 324 327 327 327 326 325 325 325 327 325 321 321 321 322 324 324 322 323 327 326 324 325 324 325 326 323 321 323 322 320 320 319 319 318 317 316 315 314 313 313 315 317 316 316 316 314 314 313 312 311 311 308 307 309 310 309 308 308 308 308 308 310 311 309 306 304 305 306 306 307 306
311 311 313 315 321 325 320 317 322 324 323 322 316 316 326 323 314 316 321 322 322 323 322 324 324 323 324 325 324 326 325 326 326 327 330 327 322 322 322 321 325 325 321 323 327 326 324 325 324 325 324 321 320 322 323 321 321 320 319 319 317 317 316 315 314 314 315 315 314 314 314 313 314 313 312 312 310 308 307 307 307 305 303 302 302 303 304 305 305 304 303 303 303 303 303 304 303
312 309 314 316 315 324 324 314 316 323 322 320 317 317 324 322 315 318 324 326 323 322 322 323 324 324 325 325 325 326 325 325 326 329 333 331 325 322 322 321 322 323 320 321 325 327 326 325 324 323 322 321 321 321 322 321 319 319 319 319 318 317 316 314 313 314 315 314 313 313 312 312 312 312 312 311 310 309 309 308 308 306 303 302 303 304 304 303 304 304 304 303 303 302 302 303 303
315 312 313 313 310 318 325 322 322 321 319 321 318 316 320 323 320 320 322 325 323 322 322 321 323 324 324 324 324 324 325 324 324 325 325 325 321 319 320 319 319 320 319 320 324 327 327 326 324 322 322 322 321 320 321 320 318 319 319 319 318 317 315 313 313 314 315 314 313 313 312 311 311 311 312 311 310 310 310 310 309 308 306 305 304 303 303 303 304 304 304 303 302 302 302 303 303
312 314 311 311 315 317 317 320 324 319 316 318 316 314 317 320 319 317 318 320 320 322 323 323 322 324 324 323 322 324 324 325 325 324 323 320 316 316 320 320 320 320 319 320 322 324 326 326 325 324 323 323 321 320 320 319 319 319 319 318 318 317 315 313 312 314 316 315 313 312 311 310 310 311 311 311 311 311 311 311 310 310 310 308 307 304 303 304 306 305 305 304 303 302 302 303 303
308 311 312 315 321 320 315 318 321 321 319 317 315 317 321 318 314 314 315 315 316 318 321 324 322 323 325 323 322 323 322 323 322 321 323 320 313 315 320 320 321 321 319 319 321 322 324 325 325 324 323 321 320 319 320 320 319 319 319 317 317 318 316 314 313 314 316 316 314 313 311 309 309 310 310 310 310 311 311 311 311 311 311 311 310 308 305 306 307 307 307 306 305 304 304 303 303
313 317 317 316 315 312 313 314 314 319 325 324 320 320 322 316 310 311 313 313 314 313 317 323 321 321 324 321 321 321 320 321 320 318 320 317 312 315 320 320 321 321 320 320 321 322 323 323 324 323 322 321 320 319 320 320 319 319 318 315 315 317 318 315 313 314 317 317 315 314 313 311 310 309 309 309 309 310 310 311 310 311 312 311 311 310 308 307 308 308 309 309 307 306 306 305 305
316 319 314 313 313 313 314 311 310 317 323 323 323 324 322 315 309 310 310 311 313 312 316 323 321 320 321 319 319 320 319 321 319 317 318 314 310 314 319 321 321 321 320 321 321 322 322 322 322 322 322 322 321 320 320 319 319 318 316 312 312 315 318 318 316 315 317 317 317 316 314 313 312 311 310 308 308 310 310 310 309 310 312 312 311 311 309 308 309 309 310 309 309 308 308 308 307
Wind_Speed
2 4 3 2 3 5 2 2 2 1 2 1 3 1 4 4 1 2 4 4 2 3 1 2 2 2 4 6 8 6 3 5 5 4 3 2 8 22 22 20 29 31 31 30 28 27 27 29 28 27 26 25 24 24 26 26 25 25 24 24 24 24 24 25 25 25 24 24 23 23 22 22 21 20 19 19 18 18 18 17 17 17 17 17 17 17 17 17 16 14 14 13 12 12 12 12 11
3 3 1 2 3 5 2 2 3 2 3 2 4 4 4 2 1 4 7 6 2 1 3 5 5 6 7 8 7 6 3 1 2 3 0 7 16 18 17 21 29 31 30 29 28 27 26 28 28 28 26 25 25 25 25 25 26 25 24 23 23 23 23 23 23 23 23 23 22 22 21 20 20 19 18 17 17 17 17 17 17 17 17 16 16 17 17 16 16 15 14 13 13 12 12 12 12
2 2 2 5 3 2 1 3 2 1 3 2 5 4 3 1 1 5 8 6 1 3 4 2 3 4 5 6 3 3 1 1 3 2 4 13 14 13 17 22 30 31 30 29 28 27 27 27 27 28 27 26 25 25 25 25 25 25 24 23 22 22 21 22 22 22 21 21 21 20 19 19 18 17 16 16 16 16 17 17 16 16 17 17 16 17 18 17 16 16 15 14 13 12 12 13 13
2 3 4 5 2 3 3 2 2 4 3 4 4 5 3 3 3 5 6 1 3 2 3 4 4 2 3 5 1 2 1 2 5 3 5 10 11 16 20 25 30 30 29 29 28 27 27 27 27 28 27 27 26 25 25 24 24 24 24 23 22 21 21 20 20 20 20 19 19 18 18 18 17 16 15 15 16 16 17 17 16 15 16 16 16 17 17 17 16 16 16 14 13 13 13 13 14
3 5 4 3 2 1 3 2 2 4 4 4 2 5 3 5 3 3 5 0 3 1 4 3 2 4 2 4 1 2 1 3 6 4 6 8 15 21 22 27 30 29 28 27 27 26 26 27 27 28 28 27 27 26 25 24 23 23 23 22 22 21 20 20 19 19 18 18 18 17 17 16 16 15 15 15 15 16 17 17 17 16 16 16 16 17 17 16 15 15 16 15 13 13 14 14 14
4 5 3 2 2 1 3 2 2 3 5 4 2 6 4 5 4 1 4 4 3 2 3 2 1 1 2 2 2 2 2 3 4 5 8 12 19 23 24 28 28 28 26 25 26 25 25 26 27 28 28 28 28 27 25 24 24 23 22 21 21 20 19 19 19 19 18 18 17 17 16 16 15 15 15 14 14 15 16 16 16 16 15 15 16 17 16 15 15 14 14 15 13 13 14 14 13
5 4 2 3 1 1 4 3 4 4 4 4 4 6 6 5 5 2 3 4 2 2 2 2 3 4 1 1 1 3 5 2 4 7 11 17 23 24 26 27 26 27 25 24 24 24 25 27 27 27 28 28 27 27 26 25 24 24 22 21 20 19 18 17 17 18 18 18 17 17 16 16 15 14 14 14 14 14 15 15 15 15 14 14 14 15 15 15 15 14 14 14 14 13 13 13 13
4 2 1 4 1 2 3 3 4 4 4 4 5 7 10 10 3 3 3 4 1 2 2 2 3 5 1 1 2 3 6 4 8 11 15 21 23 24 25 26 26 26 24 23 23 24 25 26 26 27 28 27 26 27 26 25 25 24 23 21 20 18 16 16 16 17 17 18 17 17 16 15 15 14 14 14 14 13 14 14 14 13 13 13 13 13 14 14 14 14 14 14 14 13 13 11 11
2 1 1 3 2 1 1 2 4 3 4 5 5 8 11 10 5 3 6 4 2 3 4 2 2 4 1 4 4 1 4 8 13 15 18 22 23 25 26 26 26 25 23 22 22 23 24 25 25 25 27 27 26 27 26 26 25 24 24 22 20 18 15 15 16 16 16 16 16 16 16 15 15 14 14 14 14 13 13 13 12 12 12 12 12 12 12 12 11 12 14 15 15 13 12 10 9
2 2 2 1 2 1 3 2 3 3 5 6 6 10 11 9 5 5 7 5 4 5 3 2 5 5 5 4 3 1 4 12 17 17 20 23 24 26 26 26 27 25 22 21 22 23 23 23 23 23 24 25 27 27 27 26 25 25 24 23 20 17 15 15 16 15 15 15 16 16 16 15 14 14 14 14 13 13 12 12 11 11 11 11 11 10 9 9 9 11 13 14 14 12 12 10 8
2 2 2 3 3 3 4 3 3 4 5 5 6 9 8 7 2 3 6 6 4 5 4 3 5 5 6 4 1 1 7 14 18 20 22 23 23 25 25 24 25 24 21 22 23 24 23 23 22 22 22 24 26 27 27 26 25 25 24 23 20 17 15 15 15 15 15 16 16 16 15 14 14 13 13 13 13 13 12 12 11 11 10 9 9 8 7 7 7 11 12 12 12 11 11 11 9
2 2 4 3 3 3 4 2 4 5 6 4 5 7 3 3 1 4 7 8 5 5 3 2 5 5 5 3 1 2 8 13 16 21 22 22 22 23 23 22 23 23 23 23 22 21 23 23 22 22 22 22 23 24 25 24 24 24 23 22 19 17 15 15 15 15 16 16 16 15 15 14 13 13 13 12 12 12 12 12 12 11 10 9 8 7 6 6 6 9 10 11 11 10 11 11 10
3 2 5 3 3 3 3 2 4 4 5 3 4 8 5 2 2 5 7 8 6 6 2 4 7 4 4 2 1 3 8 11 15 20 20 20 20 21 21 20 22 23 24 24 21 21 21 22 22 22 22 23 22 22 23 24 24 24 22 21 19 17 16 16 16 16 16 16 16 15 14 14 13 13 12 12 11 11 12 12 12 11 10 9 8 7 7 6 6 8 10 10 9 8 9 10 10
3 3 5 3 0 3 3 1 2 2 4 5 4 8 6 3 1 4 6 7 4 3 2 4 7 4 3 2 1 3 7 13 17 19 19 19 19 21 19 18 21 23 23 23 22 22 22 22 22 21 21 23 24 24 25 25 24 24 22 21 19 17 16 17 16 16 16 16 15 15 14 13 12 12 12 11 11 11 11 11 11 11 10 9 8 8 7 7 7 8 10 9 8 7 7 8 10
3 2 4 3 1 1 2 1 2 3 3 5 3 7 6 2 3 5 4 6 2 1 2 3 3 1 3 7 4 6 11 18 19 19 20 20 20 20 19 19 20 21 22 23 21 21 21 21 21 22 21 21 24 24 24 24 23 24 23 21 19 17 16 17 16 16 17 16 15 14 12 11 11 11 11 10 10 10 11 11 10 10 9 9 9 8 7 7 7 7 9 8 7 7 6 7 9
2 3 4 3 1 1 2 3 2 3 4 5 3 7 7 4 5 5 2 4 4 1 3 2 0 1 5 5 3 10 17 19 19 20 21 21 20 20 20 20 20 20 21 22 22 20 19 18 17 18 19 19 22 23 22 22 21 22 22 20 18 16 16 17 16 16 16 15 14 13 12 11 11 11 10 10 9 9 10 10 10 9 9 9 9 8 7 6 6 6 7 7 6 6 6 6 8
3 4 3 1 2 3 3 3 3 2 5 6 5 7 6 5 5 2 2 4 6 3 3 1 1 2 4 1 6 21 22 19 21 21 21 20 20 19 19 20 21 21 21 23 24 23 19 17 15 14 16 18 19 20 20 21 20 21 21 19 17 17 17 16 15 15 16 15 14 14 12 12 12 11 11 10 9 9 9 9 9 8 8 8 8 7 7 6 5 5 6 7 5 5 6 6 8
3 3 2 1 3 4 5 6 5 2 3 6 6 6 4 2 1 1 4 6 3 4 4 3 3 5 4 6 17 28 24 21 22 22 20 18 18 17 17 19 21 21 23 24 23 22 21 19 15 13 14 16 17 19 21 22 21 22 21 20 18 17 17 16 16 16 16 15 14 13 11 10 11 11 11 10 9 9 9 8 7 7 7 7 7 7 7 7 6 5 5 5 5 5 5 6 7
3 3 2 3 5 4 5 6 4 2 3 6 8 4 3 2 3 1 3 1 3 3 4 4 5 6 7 11 20 25 23 21 20 20 19 17 18 17 17 18 19 22 24 24 20 19 21 21 17 14 14 15 17 19 21 22 23 23 22 21 19 18 17 17 17 17 16 14 13 11 10 9 10 9 9 10 9 8 8 8 7 6 6 6 6 6 6 6 6 5 5 5 5 5 5 5 7
2 3 1 5 6 4 5 5 6 5 3 6 8 3 5 4 3 1 4 4 1 2 2 1 3 2 6 8 15 20 19 17 17 19 17 17 18 18 20 20 23 25 24 23 20 18 21 22 20 17 14 15 17 18 20 22 23 23 23 22 21 19 18 17 16 15 15 13 12 10 8 9 9 8 8 9 9 8 8 8 7 6 5 5 5 5 5 5 6 6 5 5 5 5 5 5 6
1 3 4 5 4 3 6 6 7 6 2 3 6 5 7 5 2 3 7 6 2 5 6 6 7 8 10 8 11 15 14 13 14 16 15 15 16 18 21 21 21 20 22 24 21 20 22 24 23 19 15 16 19 18 19 20 21 22 21 21 20 19 17 15 14 14 13 13 11 10 9 8 8 9 9 9 9 8 8 8 7 5 5 4 5 5 4 5 5 6 6 5 4 3 4 5 6
1 3 6 5 5 3 6 5 6 5 2 2 4 5 5 2 3 4 8 6 4 5 6 8 8 11 13 12 13 12 12 11 11 13 13 15 15 15 13 10 10 15 21 22 21 22 24 24 22 18 16 18 20 20 19 18 19 19 19 19 19 17 15 14 13 12 13 12 11 9 8 8 8 10 10 9 8 7 7 7 7 6 5 5 4 4 4 4 5 6 6 5 4 3 3 4 5
1 4 2 3 5 4 4 2 3 2 0 4 4 4 2 2 2 3 6 5 5 5 5 5 7 9 11 13 14 13 12 11 10 12 13 11 9 12 16 17 16 20 22 18 15 20 21 22 21 20 20 21 21 20 19 18 18 19 18 18 18 17 15 13 13 12 11 11 10 9 8 8 9 10 10 9 7 6 5 6 7 7 6 6 4 4 4 3 4 5 6 5 4 3 3 4 5
2 3 4 3 5 6 6 3 4 3 5 8 3 5 5 1 2 0 3 6 5 6 1 9 10 8 9 11 12 12 12 10 10 11 10 14 20 21 22 21 16 16 20 13 10 15 16 19 22 22 22 23 19 18 18 19 19 19 18 18 17 16 15 13 11 10 10 10 10 8 7 8 9 10 10 9 7 6 5 5 7 7 7 6 4 3 3 3 3 4 4 4 4 3 3 3 3
3 4 4 2 4 7 6 5 7 6 7 6 2 6 9 5 2 3 4 7 6 2 5 10 11 9 9 9 11 10 10 9 9 9 13 18 17 12 13 18 17 14 16 11 11 15 14 15 19 19 19 18 16 17 19 19 18 18 17 17 16 14 13 10 9 9 9 9 9 9 8 9 10 10 9 8 7 7 6 4 5 7 7 6 5 4 3 2 3 3 4 4 4 4 3 1 1
5 6 4 3 5 7 5 5 7 6 5 2 2 7 9 4 2 2 3 4 1 5 7 9 12 11 9 8 9 9 9 8 8 10 15 20 17 12 13 17 17 16 15 10 13 16 10 9 12 14 15 15 16 17 19 18 16 17 16 15 14 13 11 10 8 8 8 9 9 9 9 10 11 10 9 8 8 7 6 4 4 7 8 6 5 4 3 3 2 3 4 4 4 4 1 1 1
5 5 4 5 7 7 2 4 6 3 4 4 6 7 6 4 1 2 3 2 5 8 7 7 10 10 9 7 6 6 7 8 9 12 15 18 19 17 16 16 17 24 23 15 14 13 11 9 7 9 13 16 17 17 18 17 16 16 15 13 13 12 11 10 9 9 9 9 10 11 11 10 11 11 10 9 8 8 6 5 5 6 8 7 5 4 4 3 3 3 3 4 4 3 1 1 2
4 4 4 6 5 6 2 5 6 1 3 6 8 4 3 5 0 4 4 4 7 9 8 6 8 7 7 7 6 5 5 8 11 12 12 14 18 20 19 16 21 31 29 25 22 16 14 14 11 10 12 14 15 15 17 17 16 15 14 13 12 12 11 11 10 10 10 10 11 13 13 12 12 12 11 10 10 9 7 6 4 5 7 7 6 5 5 4 3 3 3 3 3 2 1 1 2
2 2 2 7 7 6 4 4 4 4 3 5 8 1 4 2 4 4 3 6 7 9 8 6 6 5 6 6 6 5 5 8 10 10 12 15 18 20 20 17 21 28 27 25 25 21 18 16 14 14 15 16 13 13 17 17 16 15 14 12 10 11 11 11 11 10 10 11 12 14 14 13 13 13 12 11 11 10 9 7 4 5 6 8 9 8 6 5 4 3 3 3 3 2 2 0 2
1 2 1 4 7 6 6 2 2 4 3 4 7 3 5 7 8 5 2 8 9 9 7 6 6 5 5 5 5 5 5 7 8 11 15 19 19 18 19 17 18 24 24 22 23 23 22 16 12 13 16 18 15 14 16 15 14 13 12 12 11 10 10 10 10 11 11 11 13 13 13 14 14 14 13 13 12 10 8 7 5 6 7 9 10 10 8 6 5 4 4 4 4 3 2 3 4
1 1 2 3 2 4 8 3 3 3 2 4 5 3 5 8 10 6 5 7 10 9 7 6 5 5 5 4 5 5 5 4 8 12 16 19 20 18 19 17 17 21 23 23 23 21 21 17 13 13 15 17 17 16 14 11 10 10 9 10 10 9 8 9 9 9 9 9 10 9 9 11 14 15 14 13 11 9 7 6 7 7 8 9 9 9 8 7 6 6 6 7 5 4 3 6 5
3 1 2 3 1 4 9 4 5 4 2 3 6 3 5 7 9 6 6 7 9 9 7 7 6 5 5 4 5 5 4 4 7 12 16 18 20 20 20 19 18 21 24 24 23 22 22 22 20 19 18 16 15 14 13 11 10 9 8 10 9 8 7 7 6 6 6 5 5 6 6 8 12 14 15 13 11 9 7 6 6 6 7 7 7 8 8 7 7 8 9 9 9 7 4 9 8
4 2 2 2 1 2 6 3 4 5 1 1 4 3 3 4 6 3 5 6 8 9 7 7 7 6 6 5 4 5 4 4 5 9 15 18 19 20 21 21 20 22 23 24 24 24 26 27 24 21 19 16 14 14 14 13 12 12 11 10 9 8 6 5 5 5 5 4 2 4 5 8 10 12 12 11 10 9 7 6 5 5 6 6 6 7 7 6 7 9 9 9 10 10 6 8 8
4 2 1 2 1 1 4 5 5 1 3 3 2 4 5 4 4 3 6 6 7 8 8 8 8 6 6 5 4 4 5 6 5 8 14 18 19 19 21 21 21 24 25 25 24 21 25 29 24 20 18 17 16 15 16 15 14 13 11 10 8 7 5 4 2 3 4 3 1 3 5 7 8 9 9 8 9 8 6 5 5 6 5 4 4 5 7 7 7 10 10 9 9 8 7 8 9
2 0 1 2 2 2 3 4 4 1 0 4 2 4 8 6 5 4 6 6 7 6 5 5 6 7 6 5 5 4 5 7 5 9 15 18 18 18 20 21 22 26 26 25 24 20 24 27 24 22 21 19 19 18 19 18 16 15 13 11 9 7 4 1 2 1 1 1 1 2 4 4 5 7 7 7 7 6 4 4 5 6 6 5 4 6 9 9 9 11 10 9 8 6 5 8 9
6 4 3 2 3 4 5 6 5 2 2 5 6 6 4 4 5 5 5 6 7 5 5 4 4 5 6 5 5 6 7 6 5 10 15 17 18 19 19 22 24 25 25 25 26 25 25 26 26 25 24 24 25 24 24 21 19 17 15 13 11 8 5 5 4 3 2 3 4 4 2 2 3 4 5 6 6 5 4 4 5 7 7 6 6 7 10 10 12 13 10 9 10 9 8 9 9
5 3 3 3 3 4 6 7 6 2 4 5 7 7 3 5 7 6 6 6 7 7 7 6 5 5 6 6 6 7 6 4 6 10 15 16 17 17 18 22 24 23 21 23 25 25 24 26 30 32 31 31 30 28 26 23 21 19 17 16 13 10 8 6 5 4 3 4 7 8 7 6 5 4 4 5 5 5 5 5 4 5 6 5 5 6 9 11 12 11 9 9 9 9 9 8 9
3 2 1 3 3 5 7 6 5 1 5 3 4 6 4 6 5 3 7 9 8 10 10 9 9 7 5 7 9 8 4 4 6 7 12 14 13 14 17 20 24 24 22 23 25 23 23 26 32 36 35 33 29 26 24 22 21 19 17 15 12 10 7 5 4 3 3 5 8 10 9 7 7 6 5 5 5 6 5 4 4 5 4 3 4 6 8 10 9 7 8 7 7 7 6 6 7
3 2 2 2 3 4 7 4 4 3 2 3 2 5 2 6 4 3 6 7 6 8 9 9 10 9 7 8 10 8 6 5 6 6 9 13 12 13 16 19 23 25 23 24 24 24 24 28 32 34 33 30 27 24 23 21 19 17 15 14 12 10 8 5 5 5 5 7 9 11 12 10 9 9 9 8 8 8 6 5 5 6 5 4 6 7 7 7 7 6 7 7 6 5 4 4 6
3 3 3 3 3 1 4 4 5 4 1 0 3 5 2 5 3 1 2 2 1 1 5 5 8 9 9 8 7 7 6 6 6 6 7 10 12 14 16 19 20 21 21 23 24 25 27 30 32 31 29 27 26 24 22 20 19 16 13 13 11 9 9 8 7 7 6 7 8 9 10 10 10 10 10 9 8 8 7 6 6 6 5 3 3 4 4 5 5 5 6 6 5 5 5 4 5
3 4 5 4 4 4 5 4 6 5 3 3 5 5 4 4 3 1 3 2 0 2 5 6 6 7 5 6 8 7 6 6 6 6 7 9 11 13 16 18 20 21 23 24 26 28 30 31 30 29 27 26 25 23 21 19 19 17 14 13 11 9 10 9 8 8 7 6 6 6 6 6 6 6 6 7 8 8 7 6 6 6 5 3 2 2 3 4 5 5 5 5 5 5 6 5 4
3 4 9 8 6 6 5 3 5 5 4 3 4 4 3 5 2 2 4 2 1 1 5 7 6 5 5 8 9 7 6 6 6 6 6 7 9 13 15 19 21 23 26 29 30 32 32 31 29 26 25 25 24 21 19 19 19 18 16 15 13 12 11 9 8 9 7 6 5 5 4 4 3 3 4 5 6 8 8 7 6 6 5 3 3 4 5 5 5 5 5 5 5 5 5 5 6
2 5 8 7 6 3 2 2 3 2 1 2 3 5 2 5 2 1 5 2 0 2 4 7 6 6 7 8 7 6 6 6 6 5 5 6 10 13 15 20 24 26 30 31 32 33 33 31 29 27 25 23 22 20 17 17 19 18 17 17 16 15 13 10 9 8 6 5 4 4 4 5 5 4 5 5 6 7 7 6 5 5 5 4 5 6 6 5 5 5 6 6 7 6 5 5 8
2 5 6 7 6 3 2 4 4 2 2 2 4 5 4 2 2 3 2 2 1 4 5 6 6 8 9 8 7 7 7 6 6 6 6 7 10 13 15 21 26 27 29 31 33 35 31 27 23 21 22 22 20 19 17 17 19 19 19 18 17 16 14 13 11 8 6 5 5 4 4 5 6 5 5 5 5 7 6 4 2 3 5 5 6 7 6 6 6 6 6 7 7 6 4 5 8
6 5 7 6 5 4 4 5 3 1 1 2 6 4 4 2 5 4 3 5 0 6 7 7 7 9 9 9 8 7 7 6 6 6 7 6 10 13 14 18 23 24 27 29 26 19 11 13 12 8 13 19 20 19 18 18 19 20 20 19 18 16 14 14 12 10 8 7 6 5 5 5 5 4 5 5 6 6 6 4 3 4 6 7 8 8 8 8 6 5 6 6 6 6 5 4 7
5 6 6 5 6 5 4 5 3 3 4 2 6 4 2 3 5 3 3 3 2 6 7 8 8 8 9 9 8 8 6 5 6 6 6 6 9 12 11 14 17 19 22 18 10 8 11 15 16 11 13 16 17 17 18 19 20 20 20 20 18 17 16 15 14 12 10 9 7 7 6 5 4 4 5 6 7 7 6 6 5 7 8 9 10 10 9 8 7 7 7 7 7 8 8 7 9
4 6 6 6 6 5 4 3 4 4 2 4 7 3 3 2 4 1 1 1 3 5 5 6 7 8 9 9 8 9 7 5 6 5 5 6 8 9 7 7 7 10 12 9 10 9 14 22 25 21 19 15 10 9 13 17 19 19 20 19 18 17 17 17 16 14 12 11 10 9 8 6 6 7 8 9 9 9 7 7 7 8 8 9 9 9 8 8 8 9 10 10 10 11 12 13 13
5 5 5 4 4 4 4 4 4 4 2 5 6 3 4 2 3 1 3 5 5 5 6 6 8 10 11 10 9 8 7 5 6 5 5 7 9 10 10 8 6 4 3 8 13 15 17 22 25 23 21 16 10 8 10 14 16 17 18 18 16 16 16 17 17 16 15 14 13 11 10 9 9 10 11 11 10 9 8 8 8 8 8 8 9 9 8 8 9 11 12 13 14 14 15 15 16
5 5 5 4 2 2 1 3 1 2 4 3 3 2 2 3 4 2 5 7 6 5 7 7 8 10 10 9 7 4 4 5 6 5 6 7 7 10 12 11 8 7 7 4 11 16 18 21 23 21 19 13 11 10 11 14 16 16 16 16 15 14 14 15 15 16 17 16 15 13 11 11 12 12 12 11 10 9 8 9 9 9 8 8 8 8 9 10 11 11 12 12 13 14 14 14 15
4 5 4 4 3 2 1 2 1 2 3 2 3 2 0 3 3 3 7 7 6 6 6 6 7 8 7 4 3 4 4 5 6 6 7 6 7 9 7 4 1 3 7 8 10 14 18 21 22 21 19 20 20 17 14 13 13 13 14 16 15 13 13 13 13 14 16 16 15 13 12 12 12 12 12 10 9 8 8 9 10 9 9 8 8 9 9 10 10 9 10 10 11 12 12 12 13
3 4 5 5 5 4 3 3 2 2 2 2 4 1 2 3 2 4 6 6 5 4 4 3 3 1 2 4 5 5 5 6 6 7 7 5 9 7 6 10 10 12 10 14 16 17 19 23 26 26 27 27 23 22 20 15 10 9 12 15 15 13 12 12 11 12 14 15 15 13 12 12 12 12 11 10 9 9 10 11 11 11 11 11 11 11 11 11 10 9 10 11 11 11 11 12 12
1 2 5 3 4 5 3 2 4 3 2 0 2 2 2 3 2 6 4 4 5 6 6 6 6 5 5 6 5 5 5 6 6 7 7 7 9 7 18 19 17 19 14 15 21 22 22 25 27 27 29 29 27 28 28 24 19 15 13 16 17 14 11 9 9 11 12 13 13 13 12 13 13 12 12 11 10 10 11 12 12 13 13 13 13 13 12 12 11 11 12 12 12 12 12 13 13
1 2 3 4 3 7 6 2 1 3 4 1 1 2 4 2 1 5 6 7 7 7 8 7 6 6 7 6 5 5 5 4 5 5 6 7 10 17 24 22 19 19 18 18 22 23 24 25 26 26 27 30 32 33 32 30 27 19 15 17 17 13 9 8 6 10 13 13 12 12 12 12 13 13 13 12 11 11 11 11 12 12 13 13 12 12 12 12 12 12 13 14 14 13 13 14 13
4 2 5 3 3 5 5 3 3 4 3 2 2 1 4 2 1 5 9 8 7 8 8 7 7 7 6 4 4 5 4 4 4 3 2 1 4 9 13 15 16 17 18 19 20 22 24 24 26 29 30 32 34 33 29 28 25 19 15 16 17 11 7 9 6 11 17 16 14 13 12 12 13 13 14 13 13 12 12 11 10 11 11 11 11 11 12 11 10 11 13 14 14 14 15 15 14
4 4 4 3 3 2 2 3 2 2 2 2 3 2 2 1 1 6 8 7 8 7 7 7 7 7 6 5 5 5 5 6 6 5 5 4 4 4 3 7 11 14 16 15 15 19 22 25 27 30 31 32 32 29 27 29 29 23 19 19 21 18 15 15 12 12 19 20 17 15 13 12 12 13 13 14 13 12 12 11 10 9 9 9 9 9 10 9 9 10 11 12 12 12 13 15 14
4 3 3 2 2 4 3 2 3 4 4 2 1 2 2 3 3 6 7 8 8 7 6 5 4 5 6 4 5 5 5 5 5 4 4 4 7 8 5 3 5 7 7 6 9 14 18 22 26 28 29 27 26 26 28 31 33 30 27 26 24 22 22 22 19 18 20 22 20 17 14 12 12 13 13 13 13 12 12 11 10 9 9 8 8 8 8 7 7 8 8 9 10 9 10 11 12
3 3 2 1 2 2 3 2 2 4 4 3 2 0 3 3 3 5 8 8 7 7 5 2 3 4 5 4 4 4 4 5 5 4 4 4 7 10 9 8 6 4 2 3 6 10 13 17 21 24 25 25 24 25 29 32 32 30 29 29 23 23 26 26 25 23 21 22 23 19 16 14 12 14 14 13 14 13 12 12 11 10 10 10 9 8 8 7 6 6 6 6 7 6 6 7 8
5 3 2 3 3 4 4 2 1 2 4 4 5 3 4 3 2 4 6 7 7 7 5 2 3 4 5 5 4 4 4 5 5 4 4 5 7 11 11 10 9 8 7 6 7 7 9 12 17 19 21 23 25 27 30 31 32 30 29 29 24 25 31 31 28 27 24 23 23 22 20 17 14 14 15 15 15 14 13 12 13 12 11 11 11 10 8 8 7 6 5 5 5 5 4 4 5
Wind_Direction
114 109 92 78 126 138 144 103 91 315 87 282 269 235 256 233 236 295 287 287 285 272 157 72 24 71 104 121 149 142 126 162 162 151 207 269 136 152 154 163 164 161 161 159 160 163 169 170 169 167 164 162 157 151 147 144 142 141 139 136 134 134 133 133 133 133 133 132 131 130 129 128 126 125 124 124 124 124 123 120 117 115 112 106 101 102 105 107 107 109 111 113 116 119 122 121 120
119 119 79 99 127 140 183 77 101 315 65 307 272 187 255 301 322 275 270 258 224 320 73 88 82 65 70 95 119 113 81 15 142 155 198 126 131 146 155 163 164 161 160 159 160 164 169 170 171 168 165 164 159 153 149 146 143 143 142 140 138 137 136 136 136 137 137 136 135 133 131 129 126 125 124 124 125 126 125 121 120 119 116 110 105 104 105 104 103 108 113 116 119 120 124 124 126
131 142 140 142 111 81 102 47 98 120 111 231 270 230 261 350 225 287 279 249 151 68 69 53 69 65 65 77 62 87 110 9 117 127 116 134 139 150 160 163 163 162 160 160 161 165 168 170 171 169 166 165 160 155 151 148 145 143 144 143 142 140 139 139 139 139 139 139 137 135 133 129 127 125 123 123 125 127 125 123 121 121 119 115 113 110 107 105 103 108 114 117 119 120 123 125 127
135 145 170 162 87 27 74 49 138 124 153 215 265 261 242 175 190 306 311 152 135 65 28 15 22 350 91 103 42 60 84 94 115 123 128 150 161 156 158 161 161 161 161 163 163 165 168 170 171 169 168 166 162 158 154 150 147 144 144 144 143 142 142 141 140 139 137 136 136 136 133 130 129 125 124 122 124 126 126 124 121 121 120 119 119 116 108 105 104 108 116 120 120 122 125 127 129
138 149 175 155 102 72 105 91 122 126 200 189 233 261 225 191 183 336 344 9 203 23 34 55 22 320 69 105 118 93 79 115 116 129 129 150 164 158 158 160 161 161 162 163 163 165 168 169 170 170 169 168 164 160 156 153 149 145 144 143 143 143 142 141 140 139 137 136 135 135 132 130 129 126 126 125 126 126 127 126 124 125 123 122 122 119 111 105 105 107 115 122 123 127 131 132 134
135 137 125 88 99 163 117 129 166 203 224 164 213 263 236 207 189 22 334 289 267 54 59 92 139 291 50 41 63 77 48 132 132 134 135 150 163 162 160 160 161 161 161 161 163 166 167 170 170 169 171 169 166 162 159 155 151 147 145 144 142 141 141 141 139 139 138 137 137 135 133 131 131 131 130 129 130 128 130 129 129 130 127 125 123 122 116 108 109 111 116 124 128 133 137 138 138
153 141 53 74 40 30 116 181 201 223 246 178 212 270 281 253 181 123 315 275 323 17 55 80 130 111 47 352 59 21 34 116 149 148 152 153 160 160 158 158 158 157 158 162 165 167 168 171 169 168 171 171 168 164 160 156 153 150 148 147 143 140 139 140 139 139 138 137 138 135 135 134 134 135 134 132 132 131 130 130 131 131 127 127 126 125 121 113 112 116 121 128 134 137 140 142 140
159 162 20 97 70 20 114 213 229 214 251 234 233 260 277 276 223 148 228 218 233 248 120 98 97 88 323 346 79 356 36 97 138 151 156 150 154 154 155 157 155 154 157 163 166 168 169 170 168 166 168 170 170 166 163 158 156 154 151 149 144 140 139 141 142 140 137 135 136 135 136 136 134 133 133 133 132 131 130 131 133 131 129 129 129 128 124 118 115 119 126 134 138 140 143 146 146
102 73 152 103 125 55 51 259 260 231 254 264 257 263 270 276 273 183 193 212 204 167 140 136 89 112 148 57 87 338 49 110 131 146 153 149 152 153 156 158 156 155 157 162 165 166 167 169 167 164 166 169 170 168 165 161 160 157 153 151 145 141 141 145 145 141 136 134 135 136 136 133 132 130 131 133 132 131 130 132 132 130 131 132 132 131 127 119 116 124 131 139 143 147 151 155 154
50 24 152 99 120 161 301 272 261 253 252 252 258 269 273 276 267 196 182 192 184 145 143 91 74 122 131 96 104 342 107 129 132 140 151 154 156 157 158 159 158 155 156 160 161 164 165 167 167 164 166 168 171 170 167 165 162 160 155 151 147 144 145 147 145 140 136 137 138 136 133 130 129 128 128 130 130 130 130 131 131 130 132 133 135 132 127 120 120 129 135 142 145 148 155 162 161
52 334 105 86 107 179 234 246 264 268 269 277 277 262 258 267 257 185 161 150 159 126 152 104 92 129 114 110 110 350 143 140 138 143 153 156 156 158 156 155 156 154 153 157 159 162 161 163 165 165 168 169 172 171 169 167 163 161 157 153 150 149 148 147 143 140 142 143 140 134 131 128 126 125 125 128 129 130 130 132 131 131 132 131 134 130 124 121 124 131 137 142 143 145 152 160 165
100 302 68 103 169 188 200 220 269 281 292 306 288 272 262 259 156 152 147 136 145 122 162 161 145 153 100 112 135 152 147 142 145 149 154 154 155 158 154 151 152 154 153 153 154 157 157 160 164 166 166 169 172 170 168 167 166 163 158 156 155 152 148 146 145 146 149 145 140 136 133 128 125 126 128 130 130 131 132 133 133 133 133 132 131 129 123 121 122 126 134 138 139 145 150 155 161
129 162 94 149 197 160 165 193 267 311 313 285 262 289 336 359 136 157 142 121 129 128 199 180 158 137 95 136 101 145 149 145 148 149 153 151 156 158 153 150 150 154 153 153 154 154 157 158 162 165 163 166 169 169 171 172 169 162 160 161 158 153 148 148 152 153 152 146 143 141 135 131 130 132 132 132 132 134 136 136 137 136 135 135 134 132 127 121 116 119 127 131 129 136 147 150 154
150 148 125 172 21 134 160 178 266 20 295 264 267 304 340 22 101 133 117 112 127 147 185 150 146 114 99 145 112 187 161 152 152 151 154 151 157 157 151 148 150 155 153 155 156 154 158 159 161 162 161 164 166 169 175 174 169 163 164 165 159 154 152 154 158 157 154 150 148 144 139 136 135 135 135 135 136 136 138 139 138 137 137 138 139 136 129 121 115 117 125 125 119 116 130 146 150
167 121 101 121 47 113 194 221 159 115 258 263 296 325 351 22 78 74 86 123 164 263 101 101 132 89 168 171 191 205 166 157 155 152 153 151 155 153 148 147 150 153 152 154 154 155 158 160 162 158 160 163 163 169 173 169 167 168 166 164 160 156 157 160 161 160 159 155 149 145 144 143 139 138 139 142 141 138 138 139 138 135 134 138 142 139 132 125 120 120 127 128 118 102 107 136 148
140 105 70 98 155 176 190 216 137 120 255 253 291 350 13 346 47 67 315 128 132 70 81 120 223 21 174 187 196 166 158 154 151 151 149 147 151 149 148 147 149 152 152 155 154 155 155 156 157 155 158 161 163 167 166 163 168 170 165 163 163 160 162 165 165 164 161 156 152 151 153 152 149 149 149 149 147 143 139 140 139 134 131 137 144 145 140 135 131 125 128 132 125 106 102 125 144
79 84 69 89 181 189 186 204 163 151 265 274 319 14 37 338 14 57 331 80 120 110 42 278 326 31 160 216 135 147 152 151 148 148 143 142 145 144 145 146 151 154 154 160 160 158 156 152 151 152 155 158 163 160 157 160 167 169 165 166 167 167 168 167 167 167 164 161 160 163 165 163 161 162 160 159 159 153 145 142 140 135 132 135 142 148 149 146 144 136 129 133 133 124 112 118 138
65 91 129 186 188 194 185 193 193 172 278 287 324 7 41 2 34 49 33 38 47 67 9 346 23 24 87 104 129 143 150 150 149 148 143 146 146 145 149 152 154 154 157 163 163 158 152 150 149 150 152 159 162 154 154 160 167 169 166 170 173 174 173 172 173 172 172 168 168 173 173 175 173 173 173 167 165 161 155 150 143 139 137 138 141 145 149 151 153 145 133 137 137 133 123 119 136
108 116 145 217 199 211 202 198 211 207 264 294 314 336 352 325 171 127 83 16 358 75 345 3 52 40 80 108 129 142 151 151 155 154 150 153 155 156 156 158 156 157 161 158 153 152 151 150 146 149 157 164 160 152 159 164 166 170 171 174 175 177 179 180 179 175 176 173 176 184 181 186 188 186 186 178 173 171 167 163 159 154 144 139 138 140 145 150 157 152 143 148 138 132 131 125 136
165 134 175 239 208 234 250 231 235 232 268 306 303 322 334 294 182 94 130 145 319 179 236 72 113 131 118 122 133 143 152 156 162 160 156 160 165 166 164 166 166 165 158 142 142 152 155 155 148 153 163 159 157 158 168 169 166 172 175 177 176 179 183 182 181 178 178 178 182 193 192 194 201 205 202 193 189 183 180 176 173 172 160 148 138 140 146 151 161 162 160 163 149 136 136 136 142
178 147 189 233 179 235 261 232 243 254 243 259 288 338 320 284 124 109 135 125 284 239 223 198 180 164 147 146 144 148 158 162 166 164 159 162 167 173 176 175 168 158 139 133 148 160 162 162 151 152 159 157 162 169 175 173 171 176 178 179 180 182 184 180 182 182 183 186 186 193 200 203 215 223 218 208 202 194 191 187 183 181 179 174 154 146 154 161 170 173 175 175 166 153 141 146 149
175 217 195 195 148 235 257 210 236 254 185 230 301 330 297 291 87 150 149 144 228 230 230 213 177 161 158 154 153 156 165 168 168 166 165 170 174 176 179 164 130 114 125 144 161 169 170 162 149 145 154 169 176 176 176 177 179 182 180 180 182 185 186 182 184 187 188 192 192 193 200 207 222 230 230 224 216 207 202 200 200 194 192 197 180 162 167 174 178 182 187 185 181 178 156 153 151
223 269 238 213 177 230 262 192 238 243 218 275 281 303 310 44 11 201 175 192 229 257 241 172 143 156 158 151 156 162 169 172 170 174 174 158 114 81 59 56 69 97 133 163 162 164 168 157 156 156 164 184 188 181 177 181 186 186 184 183 185 188 189 188 188 189 192 196 198 199 203 211 223 233 239 240 238 230 217 216 218 211 203 204 198 182 179 184 184 189 195 194 189 188 168 157 151
208 268 299 266 192 223 257 265 280 274 266 262 274 327 311 308 318 235 221 253 281 297 211 124 122 139 147 151 159 163 168 170 170 173 148 96 75 70 67 75 89 115 144 159 136 155 174 169 171 171 177 189 191 188 181 184 190 187 188 188 189 192 193 196 195 194 200 203 202 204 210 217 226 238 247 249 254 254 243 235 227 221 216 210 209 203 193 189 185 188 196 192 184 184 175 166 162
219 232 274 268 203 238 263 279 280 267 257 258 303 302 275 250 191 148 230 278 313 1 111 115 121 131 144 157 161 163 166 161 157 148 110 95 96 97 96 112 125 134 145 147 143 165 192 189 183 183 186 187 187 193 189 188 192 190 193 193 193 197 199 201 202 207 214 214 212 215 221 226 231 239 250 254 255 254 251 255 241 227 225 218 215 219 212 196 183 183 185 182 178 183 186 187 196
223 212 250 274 270 273 281 280 267 253 253 219 176 267 274 272 186 181 245 259 315 96 110 120 127 136 147 155 162 163 160 153 144 131 109 110 122 119 106 112 125 140 148 158 165 166 180 194 198 204 200 197 197 199 196 193 192 196 201 199 198 204 208 208 209 217 225 229 229 229 233 236 240 243 249 260 260 254 252 265 255 228 222 220 220 224 216 193 175 174 177 177 178 185 216 332 165
200 194 245 252 268 287 280 265 269 261 255 186 178 246 288 334 163 244 270 179 122 100 106 128 133 141 149 148 157 154 154 158 144 129 114 115 130 134 121 113 133 153 156 166 177 163 161 178 200 221 215 211 208 203 202 200 197 202 210 209 209 215 221 223 225 230 234 241 242 239 239 241 247 249 251 260 261 259 261 267 262 236 226 223 226 222 209 193 169 163 172 175 181 193 272 15 109
183 176 280 278 295 304 237 245 267 240 248 195 174 224 339 12 342 230 226 152 124 118 120 134 134 138 144 143 148 150 154 150 138 131 126 128 138 142 139 136 151 161 161 164 173 168 168 178 187 208 223 224 215 207 206 208 206 206 213 216 219 228 236 241 244 248 248 250 249 245 246 249 252 252 252 256 259 263 264 264 272 256 234 226 227 217 205 200 179 170 179 187 196 221 265 32 98
201 135 288 298 353 336 255 248 241 168 218 181 152 212 340 317 245 247 193 137 117 119 129 136 135 135 142 149 151 154 143 130 135 142 145 145 145 147 152 158 162 165 165 163 166 169 174 180 189 203 218 225 224 220 215 217 219 216 217 220 226 238 246 252 254 257 258 256 255 254 252 251 252 252 250 248 252 258 258 259 269 244 216 211 213 205 203 205 196 195 206 220 223 246 275 214 132
285 77 107 308 5 338 279 303 105 148 201 156 143 242 283 263 254 266 209 141 122 123 141 144 141 148 150 156 157 147 123 123 151 156 151 150 151 158 163 166 170 169 166 167 168 169 171 175 191 203 211 220 226 234 229 222 224 226 225 225 230 240 245 249 250 251 256 257 259 259 255 250 250 251 248 244 245 248 245 247 250 227 204 204 206 199 202 204 209 228 233 240 235 243 237 150 120
338 9 45 1 20 289 292 307 116 154 219 142 142 238 259 266 268 255 210 155 136 140 153 149 153 161 159 168 161 139 109 134 171 162 155 154 156 168 173 170 175 175 170 173 176 170 165 167 182 195 204 215 221 232 228 209 212 218 215 219 222 230 235 242 250 256 258 260 263 266 259 248 246 246 245 245 245 242 235 236 238 224 207 210 211 201 200 205 217 233 237 237 226 217 167 145 139
35 50 310 349 137 270 304 295 173 196 274 106 141 226 262 261 270 250 190 160 143 148 158 157 163 163 167 185 165 138 118 151 177 170 164 161 163 172 176 174 179 183 179 178 179 170 163 165 174 185 194 200 206 214 204 186 190 186 183 198 209 223 234 248 270 288 289 286 281 277 261 241 236 238 241 243 246 243 235 240 243 225 205 202 209 205 199 207 223 226 229 231 222 220 166 141 165
2 87 221 288 139 287 316 311 215 204 231 69 155 194 256 266 282 257 166 161 146 149 164 165 166 172 177 187 169 147 146 174 190 183 174 169 174 177 178 179 182 184 182 179 181 174 169 169 173 179 182 181 183 189 185 178 177 168 168 186 204 223 239 262 285 303 315 327 316 280 256 234 225 226 232 235 237 237 234 247 245 216 204 197 207 217 208 208 222 222 223 226 224 229 207 155 174
320 28 100 253 221 274 308 312 297 158 146 241 179 180 226 281 303 186 157 158 150 157 174 173 169 176 183 178 173 162 169 199 204 188 183 180 183 184 182 184 182 180 177 179 185 180 171 169 170 175 174 171 173 178 179 178 175 168 168 183 204 221 236 262 290 308 320 337 315 258 248 232 215 207 211 215 218 222 230 246 230 197 193 196 208 231 230 218 212 216 217 221 225 233 225 188 191
197 176 60 297 300 277 263 277 288 40 97 240 184 213 239 274 295 202 172 156 155 166 166 178 180 173 180 177 181 185 192 211 201 183 189 188 189 188 187 186 182 180 177 181 188 179 166 165 168 172 169 170 176 180 180 179 178 174 171 179 194 202 203 155 87 45 359 19 98 213 237 225 197 186 190 200 207 211 213 215 204 186 180 192 211 231 238 228 207 207 202 193 193 195 205 188 181
152 168 157 198 268 274 254 253 254 192 225 234 206 222 223 234 248 207 186 149 144 155 142 179 198 174 180 175 190 204 207 216 185 181 192 191 190 192 190 188 185 184 181 182 184 179 171 167 169 173 171 172 178 180 181 181 180 178 174 174 175 167 139 106 86 71 82 77 83 102 116 126 144 166 185 205 205 192 174 166 179 191 196 207 222 227 227 218 206 204 197 181 171 165 167 165 163
124 129 151 205 230 273 268 259 277 170 178 240 222 212 173 199 231 205 172 143 144 160 159 182 194 191 189 173 203 219 210 199 161 178 196 192 191 193 192 189 186 186 186 184 181 183 184 175 170 171 171 171 173 175 179 181 180 176 171 166 159 149 131 104 80 67 81 80 78 88 97 101 105 124 167 202 198 179 164 156 171 196 215 229 236 226 213 206 202 199 197 191 181 171 162 160 166
99 123 215 275 228 250 260 252 308 321 177 255 231 192 196 220 246 224 166 159 175 180 172 185 189 193 192 179 210 218 178 149 147 170 194 190 187 190 190 188 188 188 186 185 184 188 189 179 170 166 166 168 169 173 177 179 179 176 169 160 151 145 136 108 89 85 93 95 90 94 100 99 94 97 111 127 138 141 138 136 152 169 185 205 208 207 204 207 209 208 207 200 190 182 172 175 176
87 105 165 265 240 272 287 274 328 337 192 275 190 149 238 264 280 259 194 180 196 191 175 181 180 183 194 192 211 212 166 148 163 174 191 188 180 181 187 189 192 192 188 185 186 189 186 178 170 165 165 167 169 171 174 176 177 174 165 155 150 146 136 119 109 108 109 110 108 105 105 104 99 96 93 92 98 103 100 95 112 134 135 145 179 192 200 212 221 224 221 221 222 203 187 188 184
113 134 149 249 261 308 293 286 332 347 24 21 134 112 350 316 347 336 240 238 291 157 155 166 180 191 195 192 215 223 183 174 186 178 185 190 177 172 183 190 193 193 190 187 188 190 184 177 173 168 166 166 166 167 168 169 168 165 161 152 149 143 134 132 126 119 116 110 109 106 104 103 99 99 99 96 95 94 92 86 91 105 105 112 170 191 198 209 212 207 204 213 222 197 182 188 192
249 188 169 220 249 212 227 280 337 348 21 61 79 58 360 351 12 339 332 334 76 112 154 177 204 207 191 193 218 218 183 179 196 191 187 189 176 167 176 186 190 191 192 191 191 189 185 180 176 171 168 166 163 163 163 166 164 160 155 147 143 139 135 139 135 128 124 114 108 103 95 91 88 92 99 105 111 109 103 98 95 97 96 99 115 135 154 166 171 168 172 183 182 177 187 192 191
292 232 202 204 209 224 249 329 16 27 12 2 54 60 312 325 353 278 325 9 144 207 184 193 207 202 199 215 220 207 182 177 187 199 192 176 167 163 170 182 187 190 193 194 194 191 187 183 178 172 169 166 163 162 162 166 166 163 159 153 149 146 142 144 141 132 129 123 113 105 95 87 78 80 93 107 121 123 116 112 110 108 103 101 106 125 145 148 150 156 162 171 175 186 199 190 183
323 245 208 186 170 203 278 26 66 86 338 320 59 108 240 322 29 281 321 3 114 282 214 206 204 200 212 225 229 211 199 191 177 184 182 168 165 164 172 182 187 191 193 194 192 190 190 187 180 173 170 166 164 164 166 169 168 167 168 165 160 158 155 153 152 145 141 135 125 114 103 99 97 98 106 111 123 131 126 117 115 119 116 109 115 126 138 143 150 159 166 178 184 191 196 179 169
241 236 154 140 150 171 158 93 94 177 214 330 12 91 118 332 247 249 320 79 7 294 243 229 213 210 219 224 230 219 209 198 170 171 183 176 172 174 181 185 189 192 191 192 191 191 191 184 174 169 167 167 167 168 174 178 175 171 170 167 163 164 162 158 160 162 163 162 153 140 121 110 106 107 113 115 128 135 130 120 120 140 136 125 122 124 128 136 145 157 167 178 182 178 174 169 163
241 208 132 131 134 129 121 98 81 17 89 326 327 28 99 264 274 309 28 94 325 271 243 236 223 217 222 224 229 226 218 193 151 164 191 181 172 177 184 189 192 193 191 193 190 181 155 132 133 135 150 164 173 178 182 183 181 177 174 169 163 161 159 155 158 162 165 170 162 146 137 128 118 119 126 124 131 136 137 139 137 143 142 134 129 128 127 129 131 141 153 164 173 165 156 155 151
217 154 107 72 72 73 81 88 87 39 54 240 289 350 105 261 291 341 37 91 220 253 245 238 229 224 223 224 228 224 221 187 149 164 184 170 164 170 181 190 192 196 196 189 159 112 104 134 156 159 153 162 172 183 186 183 183 181 177 172 163 158 155 153 154 156 160 166 162 150 144 142 139 138 139 137 139 141 143 146 135 132 136 132 130 128 124 125 124 124 127 131 143 146 143 142 135
133 109 66 45 38 30 44 55 76 60 9 255 272 308 123 259 287 192 155 173 226 246 269 255 232 229 226 222 225 220 213 187 156 150 140 121 122 133 150 173 186 203 193 147 117 137 158 166 172 169 164 164 158 169 178 176 182 186 184 178 167 160 159 158 158 157 158 160 155 149 146 147 149 147 144 142 142 140 137 138 136 134 135 133 134 132 128 127 122 118 116 116 122 127 127 129 129
99 84 71 70 2 11 32 355 45 86 272 258 272 284 118 147 258 214 264 270 260 246 256 253 226 222 221 213 216 216 204 172 141 124 109 95 88 86 79 65 42 14 65 121 146 159 163 170 174 166 155 151 140 141 159 166 176 185 185 182 174 168 167 165 164 162 161 159 152 148 147 147 149 148 146 144 141 141 139 142 145 143 141 140 139 137 130 125 121 117 114 111 112 116 118 119 122
78 84 85 96 5 11 36 309 16 156 240 255 282 291 117 208 231 282 291 279 284 265 251 256 241 231 229 218 209 193 165 138 123 110 95 81 66 57 48 48 52 47 53 130 165 156 163 177 175 155 136 146 161 155 166 177 180 184 186 184 181 176 174 171 167 166 167 166 161 157 155 154 155 154 151 148 145 147 151 152 154 153 153 153 146 139 129 123 123 119 114 110 109 112 116 117 119
129 133 124 125 106 79 211 268 335 228 238 271 296 292 235 263 265 313 301 289 292 288 272 266 257 244 231 207 145 119 119 114 110 105 100 96 83 64 25 4 87 165 157 183 190 166 168 175 167 155 159 185 193 179 176 177 176 187 190 185 184 181 179 175 171 171 172 174 171 168 167 164 164 162 157 155 152 155 161 162 164 164 162 160 152 144 138 133 133 128 121 117 115 116 118 118 118
172 157 129 143 154 143 194 214 168 203 228 293 296 272 167 204 275 293 281 286 304 327 330 320 323 292 162 123 106 112 107 100 101 100 107 107 90 86 270 263 254 245 201 181 193 183 174 172 171 176 183 188 186 178 175 165 160 186 194 189 186 184 182 179 178 179 180 181 178 177 180 177 175 175 169 164 164 162 160 159 159 157 152 149 145 141 142 145 144 137 127 119 117 119 117 112 110
220 138 110 151 182 141 131 170 165 168 131 13 266 235 208 194 285 307 309 341 354 11 11 27 40 39 75 84 86 100 99 107 113 113 122 116 110 181 241 244 243 246 227 196 195 186 179 178 179 186 188 185 185 187 185 182 186 196 198 192 185 181 183 180 186 195 193 192 189 184 189 189 184 185 182 176 173 166 158 155 152 148 145 143 141 138 138 142 143 136 130 123 119 119 114 110 110
170 122 156 213 172 119 109 128 48 75 122 197 276 282 307 352 13 330 4 18 6 14 16 26 40 46 64 71 80 92 93 109 120 135 150 148 166 205 226 230 230 233 225 212 200 189 185 184 182 183 185 189 194 195 192 190 192 192 186 181 175 172 170 160 187 224 216 204 201 197 196 197 192 190 189 182 176 171 163 159 153 148 148 146 144 143 140 140 141 137 132 127 124 122 117 114 115
126 175 199 191 99 95 102 112 19 43 138 253 342 330 313 15 135 329 0 8 351 359 7 11 24 43 52 40 50 75 77 70 53 36 38 82 188 215 230 238 241 239 232 222 205 194 192 190 186 185 188 196 198 194 186 181 178 171 163 169 176 180 180 169 194 250 239 218 208 206 203 204 199 193 193 188 182 179 173 169 165 156 154 152 150 149 147 143 140 137 133 129 128 126 122 119 119
118 167 162 116 120 138 93 118 129 102 152 271 351 345 290 181 233 332 344 328 318 331 348 2 16 40 37 2 7 32 48 53 41 27 14 6 31 28 311 269 261 251 240 226 204 195 194 194 193 193 196 199 194 183 172 170 173 170 169 185 195 196 201 202 202 227 234 224 215 212 208 209 208 201 200 196 191 188 183 181 179 172 167 163 158 156 154 151 144 140 137 134 133 133 128 125 124
50 77 51 44 128 155 153 139 150 143 155 192 60 4 280 217 278 318 309 296 302 310 324 341 356 49 51 4 3 28 42 50 43 39 22 11 39 43 32 2 308 275 252 218 188 188 192 194 196 197 197 193 181 172 172 180 184 183 187 199 205 202 205 213 214 219 229 225 219 217 211 212 216 211 209 206 200 199 196 194 193 190 190 184 176 170 166 164 157 149 146 140 140 141 136 130 128
64 62 34 19 69 112 144 94 89 127 140 167 146 292 262 246 288 296 292 296 298 280 261 282 326 51 65 25 15 34 47 50 37 26 20 17 43 50 47 44 33 17 29 128 150 172 185 192 197 199 199 191 181 178 184 190 189 186 192 198 205 214 218 224 224 225 230 225 221 222 216 214 221 220 218 214 209 206 206 207 208 206 204 201 196 190 184 182 177 167 161 154 151 151 145 138 134
133 133 139 149 130 123 126 115 304 108 120 163 153 175 258 283 310 299 303 306 302 279 222 154 17 32 54 30 20 30 49 61 47 23 18 20 38 50 50 46 48 49 58 87 111 144 169 186 196 199 200 196 190 190 192 193 188 184 189 194 199 216 224 230 232 229 226 224 224 226 220 215 219 224 225 222 216 211 209 213 217 216 215 211 209 206 203 203 203 200 192 182 176 171 168 164 156